Regional Weather Roundup
Issued by NWS Wakefield, VA

Home | Current Version | Previous Version | Graphics & Text | Print | Product List | Glossary On
Versions: 1 2 3 4 5 6 7 8 9 10 11 12 13 14 15 16 17 18 19 20 21 22 23 24 25 26 27 28 29 30 31 32 33 34 35 36 37 38 39 40 41 42 43 44 45 46 47 48
000
ASUS41 KAKQ 060710
RWRAKQ

REGIONAL WEATHER ROUNDUP
NATIONAL WEATHER SERVICE WAKEFIELD VA
200 AM EST FRI MAR 06 2015

Note: "fair" indicates few or no clouds below 12,000 feet with no
significant weather and/or obstructions to visibility. * = Denotes
station may not report precipitation (e.g., rain,snow,etc.),
thunder or fog.

VAZ042-051-052>054-056-060800-
NORTHERN VIRGINIA

CITY           SKY/WX    TMP DP  RH WIND       PRES   REMARKS
WASH NATIONAL  CLEAR     20   5  52 N13       30.50R WCI   7
DULLES         CLEAR     16   1  51 NW13      30.48R WCI   2
FORT BELVOIR   CLEAR     18   5  57 N3        30.49R
QUANTICO       CLEAR     20   6  55 N16G23    30.51R WCI   6
FREDERICKSBRG* CLEAR     20  10  65 NW5       30.48R
STAFFORD*      CLEAR     13   4  67 CALM      30.52R
WARRENTON      CLEAR     17   9  70 NW17      30.46F WCI   2
CULPEPER*      CLEAR     18   7  62 NE6       30.48R
MANASSAS*      CLEAR     16   7  67 NW16      30.48R WCI   0
LEESBURG*      CLEAR     18   5  57 NW14      30.49R WCI   4
WINCHESTER     CLEAR     12  -2  52 N7        30.48R
FRONT ROYAL*   FAIR      14   5  67 N3        30.47R
LURAY*         FAIR      10   9  92 N5        30.45R
$$

VAZ048-049-060>072-079>083-060800-
CENTRAL AND SOUTH CENTRAL VIRGINIA

CITY           SKY/WX    TMP DP  RH WIND       PRES   REMARKS
RICHMOND       PTCLDY    22  14  71 N10       30.45R WCI  11
CHESTERFIELD*  FAIR      21   3  45 N9        30.45R
PETERSBURG*    CLEAR     24  13  63 N8        30.45R
HANOVER        CLEAR     20   9  62 VRB7G20   30.47R
TAPPAHANNOCK*  CLEAR     21   8  55 NW9       30.46R
QUINTON*       FAIR      22  15  74 N9        30.45R
CHARLOTTSVILLE PTCLDY    18   9  68 W3        30.44R
GORDONSVILLE*  FAIR      15   8  76 N5        30.45R
ORANGE*        PTCLDY    18   9  68 NW8       30.47R
LOUISA*        PTCLDY    18  10  73 N6        30.43R
BUMPASS*       FAIR      18  10  68 CALM      30.46R
FARMVILLE*     CLEAR     24  24 100 N6          N/A
CREWE*         FAIR      22  19  87 CALM      30.42R
FORT PICKETT*  FAIR      23  20  89 N8        30.42R
CHASE CITY*    FAIR      27  26  94 N6        30.40R
CLARKSVILLE*   FAIR      28  23  80 N9        30.40R
SOUTH HILL*    MOCLDY    25  21  84 N8G18     30.46R
LAWRENCEVILLE* CLOUDY    25  20  80 N8G18     30.41R
EMPORIA*       MOCLDY    27  16  63 NW12G23   30.43R WCI  16
$$

VAZ088>098-060800-
SOUTHEAST VIRGINIA

CITY           SKY/WX    TMP DP  RH WIND       PRES   REMARKS
NORFOLK        CLOUDY    28  20  71 N20G29    30.39R WCI  15
VIRGINIA BEACH CLOUDY    29  22  75 N20G25    30.38R WCI  16
NORFOLK NAVAL  CLOUDY    29  21  72 N20G26    30.42R WCI  16
WEST POINT*    CLEAR     25  18  72 NW6       30.46R
SALUDA*        FAIR      23  16  72 N13       30.43R WCI  12
NEWPORT NEWS   CLOUDY    28  15  58 N16G25    30.41R WCI  16
LANGLEY AFB    CLOUDY    26  20  77 N15G23    30.40R WCI  14
FORT EUSTIS    DRIZZLE   26  20  77 NE10G21   30.40R WCI  16
WILLIAMSBURG*    N/A    N/A N/A N/A MISG      30.42R
HR EXEC AP*      N/A    N/A N/A N/A MISG        N/A
FRANKLIN*      CLOUDY    26  21  80 N7G18     30.42R
WAKEFIELD      MOCLDY    26  16  65 N14G26    30.42R WCI  14
$$

VAZ020-022-025-037-045-060800-
WEST CENTRAL AND SOUTHWEST VIRGINIA

CITY           SKY/WX    TMP DP  RH WIND       PRES   REMARKS
STAUNTON*      PTCLDY    12   6  77 N6        30.42S
WAYNESBORO*    FAIR      11   7  83 N6        30.38R
HOT SPRINGS VA PTCLDY     5   4  93 NW8       30.15S
LYNCHBURG      CLEAR     21  15  78 NE3       30.40R
DANVILLE       CLOUDY    30  21  69 N10       30.40R WCI  21
SOUTH BOSTON*  CLOUDY    27  23  85 N5        30.41R
MARTINSVILLE   PTCLDY    24  17  75 N8        30.42R
ROANOKE        PTCLDY    19   8  62 NW6       30.42R
BLACKSBURG     CLOUDY    11   8  85 W5        30.38R
DUBLIN*        FLURRIES  17  12  82 NW6       30.37R
MARION*        FLURRIES  16  10  78 W5        30.34S
HILLSVILLE*    FLURRIES  15  11  85 N6        30.29R
RICHLANDS*     LGT SNOW  13   9  82 NW5       30.32S
WISE*          LGT SNOW  12  10  92 N6        30.35R
ABINGDON*      FLURRIES  19  14  80 CALM      30.37R
$$

MDZ021>025-VAZ099-100-060800-
SOUTHERN MARYLAND AND THE DELMARVA PENINSULA

CITY           SKY/WX    TMP DP  RH WIND       PRES   REMARKS
PATUXENT RIVER CLEAR     21  10  62 N20       30.45R WCI   6
BAY BRIDGE APT   N/A     23   9  54 NW15G22   30.47R WCI  10
LEONARDTOWN    CLEAR     21  12  68 CALM      30.47R
DOVER          CLEAR     17   8  66 NW12      30.44R WCI   5
GEORGETOWN     FLURRIES  19  10  68 N7        30.43R
EASTON         CLEAR     22  11  62 N9        30.48R
CAMBRIDGE      CLEAR     25  14  63 N13G18    30.44R WCI  13
SALISBURY      CLEAR     21  12  68 N8        30.42R
OCEAN CITY     CLEAR     21  11  65 N14       30.41R WCI   8
WALLOPS ISLAND PTCLDY    22  12  65 N12       30.41R WCI  10
ACCOMACK*      MOCLDY    25  14  63 N13G20    30.41R WCI  13
$$

NCZ012>017-030>032-060800-
NORTH CENTRAL AND EASTERN NORTH CAROLINA

CITY           SKY/WX    TMP DP  RH WIND       PRES   REMARKS
ROANOKE RAPIDS CLOUDY    28  21  74 N14       30.39R WCI  17
RALEIGH        MOCLDY    30  21  69 N8        30.37R
ELIZABETH CITY CLOUDY    29  24  82 N24G36    30.37R WCI  15
AHOSKIE*       CLOUDY    27  17  64 N12G25    30.40R WCI  17
EDENTON*       CLOUDY    30  28  89 N14       30.36R WCI  20
CURRITUCK*     CLOUDY    29  25  84 N14G20    30.37S WCI  18
KILL DEVIL HLS CLOUDY    29  28  95 N14G26    30.32F WCI  18
MANTEO         CLOUDY    29  26  88 N23G30    30.34S WCI  15
CAPE HATTERAS  MIX PCPN  31  30  96 N15G35    30.30R WCI  20
TARBORO*       CLOUDY    31  25  79 N14G21    30.39R WCI  20
GOLDSBORO      CLOUDY    32  32  98 N14       30.33R WCI  22
WASHINGTON     CLOUDY    31  26  83 N20G26    30.35R WCI  19
GREENVILLE     CLOUDY    32  28  86 N13G24    30.37R WCI  22
NEW BERN       CLOUDY    33  28  81 N17G25    30.33R WCI  22
WILMINGTON     CLOUDY    35  32  88 N16       30.29R
$$

VAZ048-060800-
ELSEWHERE

CITY           SKY/WX    TMP DP  RH WIND       PRES   REMARKS
HARRISBURG PA  CLEAR     12   0  58 NW12      30.47R WCI  -2
BALTIMORE      CLEAR     16   5  62 NW5       30.47R
ANNAPOLIS      CLEAR     21  10  62 N12       30.47R WCI   9
ANDREWS AFB    CLEAR     17   5  57 NW13      30.45R WCI   4
PHILADELPHIA   CLEAR     17   4  56 N15       30.47R WCI   2
HENDERSON NC   PTCLDY    28  21  78 CALM      30.38R
GREENSBORO     PTCLDY    27  18  69 N8        30.36R
ROCKY MOUNT    CLOUDY    31  24  75 N16G25    30.38R WCI  20
$$

VAZ100-060800-
MARINE

STATION/POSITION TIME  TEMP    WIND        PRES    WAVE   SWELL
                       AIR SEA DIR/SP/G            HT/PER HT/PER
                 (UTC) (F)     (DEG/KT/KT) (MB)    (FT/S) (FT/S)
BRANDYWINE LGT   0700      30   10/ 26/ 31 1030.1R
CAPE MAY NJ      0700      32  350/ 13/ 22 1029.8R
LEWES DE         0700      30  360/ 24/ 27 1030.2R
15NM E FENWICK I 0700   25 35              1028.5R   7/ 7
OCEAN-CITY-INLET 0700      32  360/ 17/ 22 1029.1R
WACHAPREAGUE VA  0700      37   10/  8/ 17 1029.5R
THOMAS POINT MD  0700          130/ 15/ 19   N/A
COVE POINT MD    0700          360/ 21/ 24 1030.8R
SOLOMONS ISLAND  0700      32                N/A
BISHOPS HEAD MD  0700      31  340/  8/  9 1030.1R
CAMBRIDGE MD     0700      32  350/ 16/ 19 1030.8R
LEWISETTA VA     0700      33  350/ 13/ 18 1031.0R
RAPPAHANNOCK LGT 0700          360/ 29/ 33 1029.9R
STINGRAY PT      0700   26 33  360/ 19/ 23   N/A     3/ 3
YORK RVR RNG VA  0700           10/ 23/ 26 1028.7R
YORKTOWN VA      0700      35  360/ 19/ 25 1029.7R
DOMINION TERM VA 0700          360/ 16/ 21 1029.4R
KIPTOPEKE VA     0700      40   10/ 15/ 22   N/A
CHES BAY BRIDGE  0700      34  340/ 27/ 32 1028.3R
CAPE HENRY VA    0700          360/ 27/ 31 1027.3R
CHESAPEAKE LGHT  0600   27     360/ 30/ 33 1027.5R
WILLOUBY STN VA  0700          360/ 21/ 26 1029.5R
S CRANEY ISL VA  0700           10/ 17/ 23 1029.2R
CAPE HENRY BUOY  0700      35                N/A     8/ 7
1ST LANDING BUOY 0700   28 34  360/ 25/ 31 1028.4R   4/ 4
OFFSHORE WE BUOY 0700      36                N/A     9/ 8   2/11
64NM E OF VA BCH 0700   33 53  350/ 31/ 37 1025.4R  11/ 9   8/ 9
DUCK PIER NC     0700      36   10/ 26/ 32 1025.9R
44100 DUCK FRF   0600      38                N/A    10/ 8   2/11
44056 DUCK FRF   0700      35                N/A     9/ 7   2/11
OREGON INLET NC  0700      42  350/ 20/ 30 1026.5S
HATTERAS NC      0700      48   10/ 28/ 33 1026.0R
CAPE LOOKOUT NC  0700           20/ 21/ 28 1024.9R
$$


USA.gov is the U.S. government's official web portal to all federal, state and local government web resources and services.